{"data":{"norad_id":56178,"intl_designator":"2023-054A","name":"IMECE","alt_names":[],"object_type":"PAYLOAD","status":"ACTIVE","operator":null,"country":"TURK","launch_date":"2023-04-15","launch_site_code":"AFWTR","launch_vehicle":null,"mission":null,"orbit_class":"UNKNOWN","rcs_meters":null,"size_class":null,"mass_kg":null,"dimensions":null,"purposes":[],"wikipedia_slug":null,"has_3d_model":false,"image_url":null,"decayed_at":null,"tle_current":{"epoch":"2026-05-25T05:14:45.741408Z","epoch_age_seconds":52202,"freshness":"FRESH","line1":"1 56178U 23054A   26145.21858497  .00000236  00000+0  52095-4 0  9998","line2":"2 56178  98.1247  50.2888 0008391 239.2923 120.7454 14.65830453167042","mean_motion":14.65830453,"eccentricity":0.0008391,"inclination_deg":98.1247,"raan_deg":50.2888,"arg_perigee_deg":239.2923,"mean_anomaly_deg":120.7454,"bstar":5.2095e-5,"rev_number":16704,"period_min":98.237828055275,"perigee_km":668.4926223562,"apogee_km":680.32820742787,"semimajor_km":7052.547414892,"source":"CELESTRAK","updated_at":"2026-05-25T13:37:59.395638Z"}}}